753  
ASUS46 KPDT 012104  
RWRPDT  
PENDLETON REGIONAL WEATHER ROUNDUP  
NATIONAL WEATHER SERVICE PENDLETON OREGON  
200 PM PDT WED JUL 1 2015  
 
NOTE: FAIR INDICATES FEW OR NO CLOUDS BELOW 12,000 FEET WITH NO  
SIGNIFICANT WEATHER AND/OR S TO VISIBILITY
.  
 
# INDICATES UNOFFICIAL STATION AND DATA  
 
WAZ520-012210-  
EAST SLOPES OF WASHINGTON CASCADES  
 
CITY SKY/WX TMP DP RH WIND PRES REMARKS
 
#BULLFROG N/A 91 49 24 E1 N/A HX 88  
#BULLFROG 2SW N/A 87 50 28 N1 27.62F  
#BUMPING DAM N/A 85 N/A N/A S2 N/A  
#CLE ELUM HS N/A 89 47 24 S2 29.95F  
#CLE ELUM LAKE N/A 87 48 26 E1 29.86F  
#CLIFFDEL 2NW N/A 94 45 19 S1 N/A HX 90  
#EASTON DOT N/A 87 30 13 N2 N/A  
#ELK HTS DOT N/A 89 88 97 CALM N/A  
#GLENWOOD N/A 90 54 30 CALM 29.88F HX 88  
#MANASTASH CYN N/A 87 51 29 CALM 30.02F  
#NELSON N/A 91 51 26 CALM 29.88F HX 88  
#NELSON 3SW N/A 87 49 27 CALM 30.07F  
#NILE N/A 89 50 26 NE3 29.17F  
#PEOH POINT N/A 83 44 25 E6 N/A  
#RONALD 2NW N/A 87 52 30 SW1 29.93S  
#SNOWDEN N/A 90 31 12 NW3 N/A HX 86  
#TEANAWAY 4NE N/A 89 54 31 CALM N/A  
#TROUT LAKE 1NE N/A 89 52 28 CALM 29.88S  

 
 
WAZ521-012210-  
SIMCOE HIGHLANDS  
 
CITY SKY/WX TMP DP RH WIND PRES REMARKS
 
#BICKLETON HS N/A 86 40 20 S3 N/A  
#SATUS PASS DOT N/A 88 50 27 CALM N/A  
#CENTERVILLE 4W N/A 93 54 27 W3 29.73F HX 91  
#CENTERVILLE 1SWN/A 91 51 26 E1 29.82F HX 88  
#GOLDENDALE N/A 90 47 23 E2 N/A HX 87  
#GOLDENDALE 5WNWN/A 93 54 27 N3 29.84F HX 91  
#GOODNOE HILLS N/A 98 53 22 NE6 N/A HX 96  
#LYLE 6NE N/A 91 49 24 SE5 29.83F HX 88  

 
 
WAZ026-012210-  
KITTITAS VALLEY  
 
CITY SKY/WX TMP DP RH WIND PRES REMARKS
 
ELLENSBURG AP SUNNY 97 46 18 E7 29.98F HX 93  
YTC-OPS AREA N/A 87 41 20 E8 30.05F  
#ELLENSBURG CWU N/A 91 49 24 N3 29.84F HX 88  
#ELLENSBURG 3NE N/A 89 52 28 CALM 29.98F  
#ELLENSBURG 1E N/A 94 54 26 NE3 N/A HX 92  
#KITTITAS 3S N/A 88 56 34 NE7 29.85F  
#MANASTASH RDG N/A 91 91 100 SE2 N/A HX 137  
#ROCKY CYN DOT N/A 90 58 34 E2 N/A HX 89  
#THORP 6N N/A 87 49 27 S7 29.91S  

 
 
WAZ027-012210-  
YAKIMA VALLEY  
 
CITY SKY/WX TMP DP RH WIND PRES REMARKS
 
SUNNYSIDE AP SUNNY 93 52 25 CALM 29.93F HX 90  
YAKIMA AIRPORT SUNNY 97 49 20 VRB5 29.94F HX 94  
#DONALD 2NE N/A 99 22 6 SE1 28.79F HX 93  
#GRANDVIEW N/A 92 50 24 CALM 29.88F HX 89  
#MABTON N/A 93 59 32 N5 29.91F HX 92  
#MOXEE 2E N/A 93 12 5 NE3 29.82F HX 89  
#NACHES 2SW N/A 91 58 33 S1 30.02S HX 90  
#PARKER DOT N/A 94 47 20 W2 N/A HX 90  
#SELAH 8E N/A 93 46 20 S10 N/A HX 89  
#TERRACE HTS N/A 93 53 26 S2 29.83F HX 91  
#TOPPENISH N/A 91 54 29 E3 29.80F HX 89  
#I82 S UMTANUM RN/A 91 57 32 SW9 N/A HX 90  
#UNION GAP DOT N/A 93 45 19 S6 N/A HX 89  
#WAPATO 4NE N/A 99 22 6 SE1 28.79F HX 93  
#WEST VALLEY N/A 91 51 26 E1 29.85F HX 88  
#W YAKIMA N/A 92 54 28 S2 29.86F HX 90  
#WHITE SWAN 5E N/A 91 55 30 N5 29.88F HX 89  
#WILEY CITY 3W N/A 92 42 18 NE1 29.93F HX 88  
#ZILLAH DOT N/A 93 47 21 E2 N/A HX 89  

 
 
WAZ028-012210-  
LOWER COLUMBIA BASIN...WASHINGTON  
 
CITY SKY/WX TMP DP RH WIND PRES REMARKS
 
PASCO SUNNY 96 53 24 VRB6 29.91F HX 94  
RICHLAND AWOS SUNNY 97 50 21 E7 29.91F HX 94  
#BASIN CITY 5SW N/A 95 62 34 NE5 29.93S HX 96  
#BENTON CITY N/A 93 52 25 N5 29.78F HX 90  
#CONNELL 5N N/A 95 50 22 W1 29.88S HX 92  
#CONNELL 5NW N/A 92 51 25 W7 29.85F HX 89  
#ELTOPIA 6NW N/A 95 60 31 N5 28.92F HX 95  
#KAHLOTUS N/A 92 N/A N/A NW12 29.87F  
#KENNEWICK N/A 87 50 28 N1 27.62F  
#KENNEWICK 3S N/A 94 58 30 CALM 29.88F HX 93  
#PATERSON N/A 95 54 25 S2 29.85F HX 93  
#PROSSER DOT N/A 96 46 18 NE6 N/A HX 92  
#PROSSER N/A 94 47 20 N1 29.86F HX 90  
#SAGEMOOR 2W N/A 89 67 48 N2 29.74F  
#TOUCHET 2S N/A 93 66 41 W1 29.87F HX 96  
#WEST PASCO N/A 96 59 29 S2 29.91F HX 95  

 
 
WAZ029-012210-  
FOOTHILLS OF THE BLUES...WASHINGTON  
 
CITY SKY/WX TMP DP RH WIND PRES REMARKS
 
WALLA WALLA AP SUNNY 96 49 20 MISG 29.94F HX 93  
#DAYTON SCHOOL N/A 94 47 20 SW5 29.96F HX 90  
#PLEASANT VIEW 1N/A 95 48 20 W1 29.89F HX 91  
#PRESCOTT N/A 96 53 24 CALM 29.85F HX 94  
#WHITMAN COLLEGEN/A 93 55 28 W6 29.91F HX 91  
#WAITSBURG 5S N/A 95 50 22 W1 29.94F HX 92  
#WAITSBURG 8N N/A 99 33 10 S7 29.79F HX 94  
#WALLA WALLA U N/A 94 55 27 SW6 29.86F HX 92  
#WHITMAN MISSIONN/A 93 55 28 W1 29.88F HX 91  

 
 
WAZ030-012210-  
BLUE MOUNTAINS...WASHINGTON  
 
CITY SKY/WX TMP DP RH WIND PRES REMARKS
 
#DIXIE 5SE N/A 82 47 29 S7 30.01F  

 
 
ORZ009-041-WAZ024-012210-  
COLUMBIA RIVER GORGE  
 
CITY SKY/WX TMP DP RH WIND PRES REMARKS
 
HOOD RIVER AP SUNNY 93 54 27 CALM 29.91F HX 91  
THE DALLES AP SUNNY 99 41 14 VRB6 29.86F HX 95  
#ARLINGTON AIRPON/A 94 51 23 N7 29.78S HX 91  
#ARLINGTON HS N/A 96 51 22 SW6 29.76F HX 93  
#MARYHILL N/A 96 50 21 NW1 N/A HX 93  
#MOSIER 1S N/A 98 38 13 CALM 29.88F HX 93  
#MURDOCK N/A 94 57 29 NW6 29.86F HX 93  
 

 
 
ORZ510-012210-  
NORTH CENTRAL OREGON  
 
CITY SKY/WX TMP DP RH WIND PRES REMARKS
 
#CHENOWITH 1W N/A 93 45 19 E1 N/A HX 89  
#COW CYN RST AREN/A 91 N/A N/A W3 N/A  
#DUFUR 9E N/A 89 49 25 SE7 29.88F  
#GRASS VALLEY 1SN/A 94 53 25 NE1 29.87S HX 91  
#MAUPIN SCHOOL N/A 96 47 19 CALM 29.91F HX 92  
#MORO SCHOOL N/A 92 57 31 SE1 29.97F HX 91  
#SHANIKO 4NW N/A 88 43 21 NW6 30.08F  
#TYGH VALLEY 2NEN/A 93 52 25 S3 29.83F HX 90  
#WAPANITIA AIRPON/A 94 47 20 S3 29.85F HX 90  
#WASCO 5NE N/A 94 55 27 N2 29.85F HX 92  

 
 
ORZ511-012210-  
CENTRAL OREGON  
 
CITY SKY/WX TMP DP RH WIND PRES REMARKS
 
BEND AIRPORT N/A N/A N/A N/A MISG N/A  
MADRAS AIRPORT SUNNY 93 45 19 N5 30.01F HX 89  
PRINEVILLE AP SUNNY 93 43 18 N8 30.03F HX 89  
#BEND 1SW N/A 93 50 23 S2 N/A HX 90  
#BEND-AWBREY N/A 93 50 23 NE3 29.81F HX 90  
#BEND-KIM LN N/A 94 54 26 E1 30.02F HX 92  
#CROOKED RVR RANN/A 93 52 25 N5 29.80F HX 90  
#CULVER N/A 90 50 26 CALM 29.96F HX 87  
#LAKE BILLY CHINN/A 94 13 5 N3 30.00F HX 89  
#POWELL BUTTE N/A 96 56 26 NE5 29.67F HX 94  
#PRINEVILLE 3N N/A 93 49 22 SW1 29.79F HX 90  
#WARM SPRINGS N/A 98 51 21 E1 29.91F HX 95  
 

 
 
 
ORZ509-012210-  
EAST SLOPES OF OREGON CASCADES  
 
CITY SKY/WX TMP DP RH WIND PRES REMARKS
 
#CAMP SHERMAN N/A 99 48 18 N1 29.82F HX 96  
#LA PINE 4NW N/A 90 54 30 CALM 29.87S HX 88  
#MT BACHELOR-MIDN/A 98 N/A N/A CALM N/A  
#SISTERS AIRPOR N/A 90 58 34 N2 30.17S HX 89  
#SISTERS ODOT N/A 89 N/A N/A NW3 N/A  
#SISTERS 3N N/A 90 51 26 CALM 30.04S HX 87  
#SUNRIVER N/A 94 48 21 S2 29.71F HX 91  
#WANOGA BUTTE D N/A 84 40 21 S3 N/A  
 

 
 
ORZ044-012210-  
LOWER COLUMBIA BASIN...OREGON  
 
CITY SKY/WX TMP DP RH WIND PRES REMARKS
 
HERMISTON SUNNY 98 51 21 NE7 29.91F HX 95  
#BOARDMAN SCHOOLN/A 93 53 26 N7 29.91F HX 91  
#BOARDMAN 8SW N/A 94 59 31 N7 29.86F HX 93  
#ECHO 8SW N/A 95 54 25 NE2 29.93F HX 93  
#IONE SCHOOL N/A 94 53 25 E7 29.89F HX 91  
#IRRIGON 4NW N/A 98 53 22 E3 N/A HX 96  
#UMATILLA SCHOOLN/A 102 68 34 CALM 29.93 HX 109  
#UMATILLA N/A 97 54 24 N1 29.82F HX 95  

 
 
ORZ507-012210-  
NORTHERN FOOTHILLS OF THE BLUES  
 
CITY SKY/WX TMP DP RH WIND PRES REMARKS
 
PENDLETON AIRPT SUNNY 97 47 18 VRB3 29.94F HX 93  
#ADAMS 3WNW N/A 94 52 24 NE7 29.85F HX 91  
#ATHENA N/A 91 53 28 CALM 29.89F HX 89  
#CAYUSE N/A 92 52 26 W2 29.84F HX 89  
#HELIX SCHOOL N/A 90 50 26 NW1 29.87F HX 87  
#HELIX 3N N/A 91 49 24 N10 29.96F HX 88  
#HELIX 6SW N/A 93 52 25 E7 29.97S HX 90  
#HOLDMAN 6E N/A 92 49 23 S6 29.68F HX 89  
#M-F GROVE ELEM N/A 92 49 23 N1 29.93F HX 89  
#M-FREEWATER 5SEN/A 91 59 34 CALM 29.95F HX 90  
#PENDLETON DNTN N/A 100 50 19 W3 29.90F HX 97  
#PDT AQUATIC CTRN/A 94 54 26 E3 29.98S HX 92  
#PDT SUNRIDGE N/A 97 53 23 N1 29.93F HX 95  
#PENDLETON 7NW N/A 95 60 31 N7 26.72S HX 95  
#PILOT ROCK N/A 92 52 26 N2 29.98F HX 89  
#TUTUILLA N/A 94 54 26 CALM 29.89F HX 92  
#UMAPINE 2E N/A 94 57 29 NW1 29.89F HX 93  
#WESTON SCHOOL N/A 89 49 25 E3 29.87F  
 

 
 
ORZ508-012210-  
SOUTHERN FOOTHILLS OF THE BLUES  
 
CITY SKY/WX TMP DP RH WIND PRES REMARKS
 
#AJAX N/A 92 48 22 NW7 29.93F HX 89  
#CONDON SCHOOL N/A 91 51 26 NE2 29.98F HX 88  
#CONDON 5W N/A 88 46 23 NE7 30.03F  
#FOSSIL SCHOOL N/A 91 48 23 CALM 29.96F HX 88  
#HEPPNER EOC N/A 94 52 24 W5 29.77F HX 91  
#HEPPNER 4NE N/A 89 52 28 VRB5 29.85S  
#LEXINGTON 2SE N/A 95 52 24 N13 29.92F HX 92  
#RUGGS 5NE N/A 94 52 24 N8 30.20S HX 91  
#RUGGS 2SW N/A 90 50 26 NE3 29.85F HX 87  
 

 
 
ORZ502-503-012210-  
BLUE MOUNTAINS  
 
CITY SKY/WX TMP DP RH WIND PRES REMARKS
 
MEACHAM SUNNY 87 48 26 CALM 30.10F  
#HEPPNER 15SE N/A 88 54 31 S2 30.04F  
#LONG CREEK HS N/A 86 43 22 CALM 30.03F  
#N POWDER DOT N/A 90 58 34 NE7 N/A HX 89  
#PIKES PEAK N/A 81 51 35 NW2 27.99S  
#TOLLGATE N/A 78 45 31 S1 30.10F  
#TROY SCHOOL N/A 98 51 21 SE2 29.67F HX 95  
#UKIAH N/A 91 49 24 NW1 29.91F HX 88  
#WESTON 4E N/A 86 52 31 NW3 29.82F  

 
 
ORZ505-012210-  
JOHN DAY BASIN  
 
CITY SKY/WX TMP DP RH WIND PRES REMARKS
 
JOHN DAY SUNNY 95 43 17 W5 30.07F HX 91  
#JOHN DAY KJDY N/A 96 54 25 SW2 30.04F HX 94  
#DAYVILLE SCHOOLN/A 96 43 16 N1 29.95F HX 92  
#MITCHELL N/A 96 59 29 NW1 30.16F HX 95  
#MONUMENT HS N/A 95 42 16 SE3 29.96F HX 91  
#MT. VERNON 5SE N/A 90 45 21 SE1 30.04F HX 86  
#WINLOCK N/A 97 45 17 E3 30.11F HX 93  

 
 
ORZ506-012210-  
OCHOCO AND JOHN DAY HIGHLANDS  
 
CITY SKY/WX TMP DP RH WIND PRES REMARKS
 
#BUCK CREEK DOT N/A 95 95 100 SW9 N/A HX 161  
#HORSE RIDGE DO N/A 91 41 18 NW8 N/A HX 87  
#KEYES SMT DOT N/A 89 48 24 SE3 N/A  
#PAULINA SCHOOL N/A 92 48 22 CALM 30.03F HX 89  
#PINE MTN OBS N/A 80 46 30 SE2 N/A  
#PRAIRIE CITY N/A 97 46 18 W2 29.74F HX 93  
#SENECA N/A 88 N/A N/A N5 N/A  
#SENECA 9NW N/A 91 46 21 NE1 29.81F HX 87  

 
 
ORZ049-012210-  
GRANDE RONDE VALLEY  
 
CITY SKY/WX TMP DP RH WIND PRES REMARKS
 
LA GRANDE SUNNY 93 45 19 N8 30.02F HX 89  
#ELGIN 3N N/A 92 44 19 S5 29.99F HX 88  
#IMBLER SCHOOL N/A 89 54 31 CALM 29.98F  
#ISLAND CITY 4N N/A 92 56 30 CALM 29.92F HX 90  
#UNION 1S N/A 90 47 23 W6 29.77F HX 87  

 
 
ORZ050-012210-  
WALLOWA COUNTY  
 
CITY SKY/WX TMP DP RH WIND PRES REMARKS
 
#ENTERPRISE HS N/A 89 46 23 NW1 30.07F  
#IMNAHA SCHOOL N/A 99 41 14 S3 29.92F HX 95  
#IMNAHA 10S N/A 76 51 42 SW3 30.01S  
#JOSEPH 3N N/A 87 38 18 NW8 30.11F  
#JOSEPH 3W N/A 84 42 23 E8 29.96F  
#LOSTINE N/A 90 43 20 N2 29.67F HX 86  
#MT HOWARD 8000 N/A 68 39 35 N6 30.43S  
#PROMISE 1S N/A 86 50 29 W8 29.97F  
#WALLOWA SCHOOL N/A 92 42 18 CALM 29.99F HX 88  
 

 
 
CLICK HERE TO GO TO PREVIOUS BULLETINS.

The Nexlab OR Page
The Nexlab WA Page Main Text Page